Powrót do katalogu

DMSP 5D-2 F13 DEB

AktywnySSO
NORAD 40601·DEBRIS·🇺🇸 United States

Wystrzelony Mar 24, 1995 z Vandenberg Space Force Base

Loading…

Następne Przeloty (najbliższe 24 godziny)

TLE

ŚwieżeSource: Space-Track

Epoka: Sep 12, 2026, 14:25 UTC

1 40601U 95015EY  26255.60087128  .00003804  00000-0  10376-2 0  9997
2 40601  98.6461 307.2347 0006584 295.8854  64.1659 14.47938285592915

Śledź DMSP 5D-2 F13 DEB w czasie rzeczywistym z AllMySat

Download on the App Store